ORBCOMM FM105 [-] (41181 NORAD) Tracking and Keplerian Element Data

This shows tracking and keplerian element data for the satellite.

Feedback or suggestion? Click here.




ElementValue
Catalog41181
NameORBCOMM FM105 [-]
Epoch Orbit13526
Epoch Day195.89915945
Epoch Year2018
RAAN353.4182
Inclination47.0029
Eccentricity0.0001964
Argument of Perigee177.3227
Mean Anonmoly182.7663
Mean Motion14.433022
Decay Rate-1.12E-06
L11 41181U 15081C 18195.89915945 -.00000112 00000-0 13262-4 0 9997
L22 41181 47.0029 353.4182 0001964 177.3227 182.7663 14.43302200135263

Live tracking and technical data element details for ORBCOMM FM105 [-] (NORAD 41181). ORBCOMM FM105 [-] can be tracked NOW for your location showing map with azimuth and elevation plus other details from your city location.

Track the satellite on the map from your city or location and see movement details for azimuth, elevation, latitude, longitude, range, height, and movement on the map or in text.







IsCatalogInMostPopularTable: catalog: 41181, numindb: 79
Update: records affected: 1



GetName: 41181 ORBCOMM FM105 [-]

Hit Count: updated at: Sun, 15 Jul 2018 23:06:55 GMT